Tracking 31027 objects as of 18-Jul-2025
HD Live streaming from Space Station
objects crossing your sky now

GEESAT 3-10

Track GEESAT 3-10 now!
10-day predictions


NORAD ID: 61020
Int'l Code: 2024-159K
Perigee: 584.6 km
Apogee: 604.4 km
Inclination: 50.0 °
Period: 96.4 minutes
Semi major axis: 6965 km
RCS: Unknown
Launch date: September 5, 2024
Source: People's Republic of China (PRC)
Launch site: Taiyaun Space Center, China (TSC)
Your satellite tracking list
Your tracking list is empty




NASA's NSSDC Master Catalog

Two Line Element Set (TLE):
1 61020U 24159K   25199.61600747  .00002882  00000-0  29428-3 0  9995
2 61020  49.9975 194.7068 0014229 351.4600   8.6098 14.93403040 46904
Source of the keplerian elements: AFSPC